EHI
0 0 0 0 0 0 0 0 0 0 0 0 0 0 0 0 0 0 0 0 0 0 0 0 0 0 0 0 0 0 0 0 0 0 0 0 0 0
0 0 0 0 0 0 0 0 0 0 0 0 0 0 0 0 0 0 0 0 0 0 0 0 0 0 0 0 0 0 0 0 0 0 0 0 0 0
0 0 0 0 0 0 0 0 0 0 0 0 0 0 0 0 0 0 0 0 0 0 0 0 0 0 0 0 0 0 0 0 0 0 0 0 0 0
0 0 0 0 0 0 0 0 0 0 0 0 0 0 0 0 0 0 0 0 0 0 0 0 0 0 0 0 0 0 0 0 0 0 0 0 0 0
0 0 0 0 0 0 0 0 0 0 0 0 0 0 0 0 0 0 0 0 0 0 0 0 0 0 0 0 0 0 0 0 0 0 0 0 0 0
0 0 0 0 0 0 0 0 0 0 0 0 0 0 0 0 0 0 0 0 0 0 0 0 0 0 0 0 0 0 0 0 0 0 0 0 0 0
0 0 0 0 0 0 0 0 0 0 0 0 0 0 0 0 0 0 0 0 0 0 0 0 0 0 0 0 0 0 0 0 0 0 0 0 0 0
0 0 0 0 0 0 0 0 0 0 0 0 0 0 0 0 0 0 0 0 0 0 0 0 0 0 0 0 0 0 0 0 0 0 0 0 0 0
0 0 0 0 0 0 0 0 0 0 0 0 0 0 0 0 0 0 0 0 0 0 0 0 0 0 0 0 0 0 0 0 0 0 0 0 0 0
0 0 0 0 0 0 0 0 0 0 0 0 0 0 0 0 0 0 0 0 0 0 0 0 0 0 0 0 0 0 0 0 0 0 0 0 0 0
0 0 0 0 0 0 0 0 0 0 0 0 0 0 0 0 0 0 0 0 0 0 0 0 0 0 0 0 0 0 0 0 0 0 0 0 0 0
0 0 0 0 0 0 0 0 0 0 0 0 0 0 0 0 0 0 0 0 0 0 0 0 0 0 0 0 0 0 0 0 0 0 0 0 0 0
0 0 0 0 0 0 0 0 0 0 0 0 0 0 0 0 0 0 0 0 0 0 0 0 0 0 0 0 0 0 0 0 0 0 0 0 0 0
0 0 0 0 0 0 0 0 0 0 0 0 0 0 0 0 0 0 0 0 0 0 0 0 0 0 0 0 0 0 0 0 0 0 0 0 0 0
0 0 0 0 0 0 0 0 0 0 0 0 0 0 0 0 0 0 0 0 0 0 0 0 0 0 0 0 0 0 0 0 0 0 0 0 0 0
0 0 0 0 0 0 0 0 0 0 0 0 0 0 0 0 0 0 0 0 0 0 0 0 0 0 0 0 0 0 0 0 0 0 0 0 0 0
0 0 0 0 0 0 0 0 0 0 0 0 0 0 0 0 0 0 0 0 0 0 0 0 0 0 0 0 0 0 0 0 0 0 0 0 0 0
0 0 0 0 0 0 0 0 0 0 0 0 0 0 0 0 0 0 0 0 0 0 0 0 0 0 0 0 0 0 0 0 0 0 0 0 0 0
0 0 0 0 0 0 0 0 0 0 0 0 0 0 0 0 0 0 0 0 0 0 0 0 0 0 0 0 0 0 0 0 0 0 0 0 0 0
0 0 0 0 0 0 0 0 0 0 0 0 0 0 0 0 0 0 0 0 0 0 0 0 0 0 0 0 0 0 0 0 0 0 0 0 0 0
0 0 0 0 0 0 0 0 0 0 0 0 0 0 0 0 0 0 0 0 0 0 0 0 0 0 0 0 0 0 0 0 0 0 0 0 0 0
0 0 0 0 0 0 0 0 0 0 0 0 0 0 0 0 0 0 0 0 0 0 0 0 0 0 0 0 0 0 0 0 0 0 0 0 0 0
0 0 0 0 0 0 0 0 0 0 0 0 0 0 0 0 0 0 0 0 0 0 0 0 0 0 0 0 0 0 0 0 0 0 0 0 0 0
Wind_Speed
3 4 3 2 2 2 2 3 3 2 3 3 2 2 2 2 4 3 4 8 10 10 10 10 9 9 9 9 10 10 10 10 10 10 10 10 10 11
3 4 4 3 3 3 3 2 3 3 3 3 3 3 2 3 5 3 4 9 10 10 10 10 10 10 10 10 10 10 11 11 11 11 11 10 11 11
3 4 5 4 3 3 3 3 3 3 4 4 2 2 3 3 4 3 3 4 4 10 11 11 10 10 10 10 11 11 11 11 12 12 11 11 11 11
4 4 5 4 5 4 3 4 3 4 4 5 3 2 3 3 3 4 4 3 4 8 11 11 11 11 11 11 11 11 11 11 11 11 12 12 12 12
4 4 4 5 5 4 4 4 3 3 3 4 4 2 2 2 3 3 3 3 4 6 9 10 11 11 11 11 11 11 11 11 12 12 12 12 12 13
4 4 4 5 6 6 5 5 4 3 3 3 4 3 3 2 2 3 4 3 4 4 6 7 9 11 11 11 11 11 11 12 12 12 12 12 12 13
4 4 5 6 7 6 4 5 5 4 3 3 4 3 3 2 3 2 4 4 4 3 3 4 4 4 5 8 10 11 11 12 12 12 12 12 12 13
4 4 4 5 6 8 8 7 6 5 5 4 3 4 4 4 3 3 3 3 4 2 2 4 3 5 4 4 9 12 12 12 12 12 12 12 13 13
3 3 3 3 5 3 5 7 7 9 8 5 5 5 5 4 3 4 4 4 5 3 3 6 3 5 4 6 11 12 11 11 11 11 12 13 13 13
4 4 4 4 4 4 4 4 4 5 6 5 5 6 5 5 5 5 5 5 5 3 3 5 4 4 4 4 9 10 10 10 11 11 12 12 13 13
4 4 5 5 7 8 4 4 5 5 7 9 9 9 10 10 7 3 3 3 5 4 3 3 3 4 4 4 5 8 9 9 10 11 11 12 12 12
3 4 7 7 8 9 5 5 6 6 4 4 5 7 6 7 9 5 4 4 4 4 3 3 2 2 4 3 2 3 4 7 9 10 12 12 12 6
3 3 4 8 9 10 8 6 8 7 4 4 3 4 4 4 4 4 5 5 5 6 3 3 2 2 3 4 4 3 3 3 4 6 9 12 12 9
4 3 4 8 9 10 7 8 11 8 3 3 3 4 4 4 4 4 5 6 6 7 5 4 3 4 4 5 5 3 3 3 3 4 4 8 10 11
3 6 8 9 8 6 8 10 7 3 3 4 5 5 4 4 3 3 4 4 5 5 5 6 5 5 5 6 6 4 4 4 4 4 4 4 4 4
3 5 8 8 6 6 6 4 3 3 4 5 4 4 3 3 3 3 3 3 4 4 4 5 6 6 5 6 6 7 5 4 3 4 4 5 4 4
3 2 2 2 2 3 3 3 3 3 4 3 4 4 3 3 3 3 3 3 4 4 4 3 3 4 6 6 6 7 6 5 5 4 4 5 5 4
5 3 3 3 4 4 4 4 3 4 4 4 4 4 4 4 4 3 3 4 5 5 5 3 2 2 3 5 7 7 5 5 4 4 4 5 6 4
4 3 4 4 4 4 4 4 4 4 3 4 4 4 4 4 4 4 4 4 5 5 4 3 3 3 5 6 4 5 5 4 3 4 4 4 6 5
3 4 4 4 4 4 4 4 4 4 3 4 4 4 4 4 4 5 4 5 5 5 4 3 4 4 5 6 5 4 5 5 4 4 4 4 5 7
4 4 4 4 4 4 4 4 4 4 4 4 4 5 4 4 5 5 5 7 6 5 5 5 5 6 3 2 4 4 3 5 6 4 3 4 4 3
4 5 4 4 4 4 4 4 4 4 4 5 5 5 4 5 5 6 5 5 5 5 5 4 3 2 2 3 5 5 5 4 5 7 8 7 4 3
5 5 4 4 4 4 4 5 5 5 4 4 4 5 4 4 5 5 5 5 4 4 4 3 2 2 3 3 4 5 5 5 3 3 4 7 10 12
Wind_Direction
207 208 209 212 201 201 191 181 184 249 269 260 269 270 272 269 284 289 280 290 297 297 299 300 299 299 298 299 301 301 302 303 303 303 303 302 303 303
207 209 215 213 207 202 199 198 192 202 247 251 252 270 280 287 292 291 282 294 296 294 295 296 295 293 292 294 295 294 294 294 296 297 296 297 298 297
217 213 221 213 208 207 199 198 202 200 241 267 253 265 267 277 297 296 286 282 285 292 293 292 290 288 288 289 290 290 289 289 292 293 293 293 294 293
224 218 225 215 214 210 203 207 210 207 221 261 271 264 259 264 277 283 288 289 279 289 293 291 289 287 286 287 287 287 287 286 286 287 289 290 291 288
221 220 224 211 221 215 211 213 216 219 214 240 267 266 271 278 292 286 281 282 285 288 293 289 287 286 284 284 284 285 284 283 281 280 282 285 286 286
224 223 223 215 221 216 214 215 214 217 217 234 257 267 269 279 277 288 299 288 288 294 290 288 288 290 288 287 286 285 282 281 279 278 279 281 281 280
231 228 228 227 228 224 220 212 205 211 216 230 250 264 265 272 270 269 284 297 288 272 286 284 282 278 280 283 284 280 279 279 278 277 277 279 281 277
234 238 240 242 243 245 245 239 219 212 217 224 242 249 259 254 260 267 280 302 298 278 290 287 274 274 270 262 276 280 278 279 278 277 279 281 282 280
230 235 247 244 246 235 251 255 248 242 235 224 235 243 252 246 249 265 259 260 266 276 291 284 274 274 271 272 281 279 278 279 279 279 280 282 281 280
230 227 234 245 238 231 227 239 247 249 246 236 231 241 242 241 235 248 260 271 272 263 233 269 276 273 281 275 275 275 278 279 280 282 283 283 282 281
242 232 231 238 250 252 238 239 253 260 261 251 250 255 261 265 259 254 258 273 282 268 214 245 276 288 284 276 275 278 282 285 287 288 289 289 286 284
254 244 243 245 253 255 236 230 250 257 249 259 262 267 266 267 265 242 230 246 267 273 220 218 259 297 298 279 282 289 287 286 292 294 294 294 291 286
256 253 249 259 262 259 249 232 247 258 244 243 253 257 256 253 253 240 228 228 243 253 228 204 243 244 257 288 290 273 265 274 284 286 291 293 290 285
254 255 255 266 268 267 262 255 262 268 245 242 254 256 253 252 249 245 241 238 239 248 244 220 235 241 259 276 278 278 273 266 270 278 278 289 291 289
257 263 269 272 274 272 266 268 268 250 234 245 253 254 246 247 250 256 255 253 257 254 245 231 233 243 248 261 270 275 285 277 259 264 273 277 279 283
277 276 282 279 273 266 272 274 253 233 236 244 252 254 249 249 251 248 257 263 271 273 252 238 233 234 248 255 261 271 265 265 265 265 274 278 273 264
275 272 272 276 265 261 259 254 245 243 247 243 247 256 256 255 257 245 246 251 256 272 278 257 238 239 243 249 261 262 264 264 261 268 275 281 275 264
279 261 261 259 259 259 258 257 247 242 243 243 248 252 256 258 263 258 250 249 258 263 266 263 258 276 275 259 237 252 258 261 266 266 266 277 283 274
271 257 258 258 257 254 251 250 251 244 238 241 246 251 252 254 256 257 252 253 259 261 260 250 241 248 272 280 265 229 240 263 271 273 264 260 274 280
251 255 258 257 255 255 254 253 253 249 242 242 245 248 245 248 253 253 251 251 258 263 265 249 236 239 251 267 275 274 247 249 258 268 275 276 274 279
261 256 255 256 256 253 254 253 250 249 246 245 246 246 243 242 249 251 254 255 258 261 263 261 249 246 251 263 274 278 274 254 249 254 266 281 289 292
263 261 259 256 255 254 254 254 254 252 247 246 247 247 245 241 247 249 250 252 253 256 264 268 258 247 235 253 269 279 288 290 277 269 259 247 249 254
264 263 261 258 253 252 251 252 253 256 251 247 249 249 246 244 244 247 250 251 254 257 263 270 270 258 255 255 264 274 279 287 294 298 290 279 265 261